[[{"header":{"parameterUnit":"m.s-1","parameterCategory":1,"la1":30.2991,"la2":30.254,"lo1":-89.0895,"lo2":-89.0444,"dy":0.0017,"dx":0.0017,"nx":28,"ny":28,"refTime":"2024-12-23T09:00:00:Z","depth":0,"parameterNumber":2,"parameterNumberName":"U-component_of_WINDS"},"data":[0,0,0,0,0,0,0,0,0,0,0,0,0,0,0,0,0,0,0,0,0,0,0,0,0,0,0,0,0,0,0,0,0,0,0,0,0,0,0,0,0,0,0,0,0,0,0,0,0,0,0,0,0,0,0,0,0,0,-3.3235,-3.3236,0,-3.3325,-3.3326,-3.3327,-3.3219,-3.3215,-3.3211,-3.3207,-3.3301,-3.3307,-3.3313,0,0,0,0,0,0,0,0,0,0,0,0,0,-3.2971,-3.2976,-3.3235,-3.3236,-3.3237,-3.3325,-3.3326,-3.3327,-3.322,-3.3215,-3.321,-3.3205,-3.3299,-3.3306,-3.3314,0,0,0,0,0,0,0,0,0,0,0,0,0,-3.3076,-3.2978,-3.3235,-3.3194,-3.3191,-3.3325,-3.3326,-3.3328,-3.3221,-3.3215,-3.3209,-3.3203,-3.3297,-3.3306,-3.3315,-3.3493,0,0,-3.3344,-3.3348,0,0,0,0,0,0,0,0,-3.307,-3.3086,-3.3199,-3.3197,-3.3194,-3.3254,-3.3267,-3.3383,-3.3222,-3.321,-3.3207,-3.32,-3.3291,-3.33,-3.333,-3.3498,-3.3502,-3.3344,-3.335,-3.3354,-3.3357,0,0,0,0,0,0,0,-3.3063,-3.3081,-3.3271,-3.3201,-3.3198,-3.3172,-3.318,-3.3289,-3.3283,-3.321,-3.3203,-3.3215,-3.3288,-3.3322,-3.3332,-3.3503,-3.3344,-3.3353,-3.3358,-3.3362,-3.3822,-3.3829,0,0,0,0,0,0,-3.306,-3.3076,-3.3268,-3.3273,-3.3116,-3.3181,-3.319,-3.3241,-3.3281,-3.3282,-3.322,-3.3209,-3.3308,-3.3321,-3.3335,-3.3547,-3.3354,-3.3363,-3.3368,-3.3816,-3.3824,-3.3831,0,0,0,0,0,0,-3.3055,-3.3078,-3.3264,-3.3173,-3.3194,-3.3192,-3.325,-3.3246,-3.3279,-3.3288,-3.3287,-3.3255,-3.3304,-3.3321,-3.3455,-3.3549,-3.3367,-3.3376,-3.3808,-3.3818,-3.3827,-3.3973,0,0,0,0,0,0,-3.3048,-3.3077,-3.3145,-3.3175,-3.32,-3.3383,-3.3256,-3.3252,-3.3296,-3.3283,-3.3321,-3.3322,-3.3301,-3.3441,-3.3464,-3.3558,-3.3383,-3.38,-3.3812,-3.3824,-3.396,-3.3986,-3.4009,0,0,0,0,0,-3.3039,-3.3182,-3.3149,-3.3172,-3.3284,-3.3388,-3.3403,-3.3375,-3.3304,-3.3372,-3.3378,-3.332,-3.3534,-3.3456,-3.3481,-3.3579,-3.3794,-3.3809,-3.3823,-3.3948,-3.3981,-3.4009,0,0,0,0,0,0,-3.3164,-3.3186,-3.3149,-3.3306,-3.3346,-3.337,-3.3455,-3.3411,-3.3472,-3.3458,-3.3422,-3.3431,-3.3574,-3.3589,-3.3501,-3.3754,-3.3652,-3.3673,-3.3739,-3.377,-3.3794,-3.3788,-3.3391,0,0,0,0,0,-3.321,-3.3292,-3.3307,-3.3444,-3.3466,-3.3458,-3.3502,-3.3477,-3.3518,-3.3535,-3.355,-3.3592,-3.3668,-3.372,-3.3791,-3.3961,-3.3968,-3.404,-3.4065,-3.4086,-3.4104,-3.4196,-3.4229,-3.388,-3.388,-3.3879,0,0,-3.3305,-3.3327,-3.3382,-3.347,-3.3498,-3.3585,-3.3473,-3.3569,-3.3634,-3.3549,-3.3676,-3.3689,-3.3734,-3.3886,-3.3954,-3.3904,-3.4202,-3.4105,-3.4121,-3.4128,-3.4215,-3.4248,-3.4277,-3.389,-3.3888,-3.3886,0,0,-3.3524,-3.3549,-3.3666,-3.3697,-3.3741,-3.3734,-3.3762,-3.3793,-3.3799,-3.3925,-3.3864,-3.394,-3.4072,-3.4107,-3.4142,-3.4374,-3.4324,-3.4398,-3.4528,-3.4618,-3.4646,-3.467,-3.4754,-3.4784,-3.4416,-3.4416,-3.4416,0,-3.3638,-3.3766,-3.3733,-3.3834,-3.3875,-3.3802,-3.3921,-3.3952,-3.4018,-3.4048,-3.399,-3.4155,-3.4179,-3.434,-3.4396,-3.4426,-3.4458,-3.4394,-3.4644,-3.4668,-3.469,-3.477,-3.4802,-3.4425,-3.4424,-3.4423,-3.4422,0,-3.3904,-3.3994,-3.4084,-3.4148,-3.4199,-3.4309,-3.4293,-3.4348,-3.4319,-3.4319,-3.4449,-3.4476,-3.4551,-3.4587,-3.456,-3.4744,-3.4711,-3.465,-3.4547,-3.4733,-3.4807,-3.4837,-3.4438,-3.4434,-3.4432,-3.443,0,0,-3.4206,-3.425,-3.4283,-3.4312,-3.4355,-3.4424,-3.4531,-3.4604,-3.4653,-3.47,-3.4789,-3.4903,-3.4846,-3.4886,-3.4862,-3.494,-3.5124,-3.4869,-3.4869,-3.4916,-3.533,-3.5377,-3.5413,-3.509,-3.5096,-3.51,-3.5326,0,-3.4426,-3.461,-3.4583,-3.4761,-3.4844,-3.4776,-3.4868,-3.4905,-3.4908,-3.4979,-3.4981,-3.5063,-3.4981,-3.5005,-3.5079,-3.5086,-3.5207,-3.5069,-3.5174,-3.5178,-3.5167,-3.5451,-3.5501,-3.5713,-3.5355,-3.536,-3.5363,0,-3.4708,-3.4765,-3.4952,-3.4982,-3.5016,-3.51,-3.5165,-3.5233,-3.5274,-3.527,-3.5315,-3.5276,-3.5383,-3.5278,-3.5425,-3.5332,-3.5374,-3.5383,-3.5391,-3.5401,-3.5283,-3.547,-3.578,-3.5812,-3.5408,-3.5405,-3.5402,0,-3.4911,-3.5034,-3.5162,-3.5188,-3.5226,-3.5287,-3.5306,-3.534,-3.5386,-3.5443,-3.5473,-3.5542,-3.558,-3.5634,-3.5616,-3.554,-3.5768,-3.566,-3.5769,-3.577,-3.5821,-3.5818,-3.6143,-3.5846,-3.5845,-3.5845,-3.5844,0,-3.516,-3.5277,-3.5253,-3.5332,-3.5461,-3.5429,-3.5558,-3.5568,-3.56,-3.568,-3.5624,-3.57,-3.567,-3.5745,-3.5731,-3.5856,-3.5874,-3.5874,-3.5869,-3.588,-3.588,-3.5908,-3.5893,-3.5853,-3.5851,-3.585,-3.5848,0,-3.5409,-3.5398,-3.5532,-3.5557,-3.5566,-3.5661,-3.5682,-3.5756,-3.5754,-3.5856,-3.5878,-3.5875,-3.596,-3.5946,-3.604,-3.6031,-3.6188,-3.6164,-3.6174,-3.6169,-3.6279,-3.6269,-3.6634,-3.668,-3.6352,-3.6355,-3.6357,0,-3.557,-3.5658,-3.5693,-3.5742,-3.5765,-3.5845,-3.5892,-3.5863,-3.5914,-3.5967,-3.6035,-3.6115,-3.6177,-3.6316,-3.6323,-3.6395,-3.6373,-3.6496,-3.6384,-3.6392,-3.6377,-3.6372,-3.6381,-3.6519,-3.6523,-3.6526,-3.6528,0,-3.5857,-3.5847,-3.5916,-3.5983,-3.604,-3.6092,-3.6138,-3.6181,-3.6157,-3.6217,-3.6303,-3.6351,-3.6447,-3.6528,-3.6595,-3.6615,-3.6569,-3.6563,-3.6592,-3.6605,-3.6607,-3.6609,-3.6236,-3.6555,-3.6553,-3.6551,-3.6549,-3.6548,-3.6068,-3.6143,-3.6179,-3.6258,-3.6289,-3.6334,-3.6405,-3.6411,-3.6482,-3.6558,-3.6537,-3.6635,-3.6673,-3.6758,-3.6786,-3.6862,-3.6817,-3.6859,-3.687,-3.6881,-3.6894,-3.6594,-3.6874,-3.6873,-3.6873,-3.6872,-3.6871,0,-3.6353,-3.6372,-3.6445,-3.6511,-3.6573,-3.6523,-3.6571,-3.6627,-3.6714,-3.6753,-3.6815,-3.6915,-3.6992,-3.7005,-3.7078,-3.7137,-3.7118,-3.7158,-3.7154,-3.7159,-3.693,-3.6898,-3.7172,-3.7172,-3.7172,-3.7172,-3.7172,-3.7172,-3.6508,-3.6634,-3.6628,-3.6769,-3.6787,-3.6883,-3.6915,-3.6956,-3.6987,-3.71,-3.7164,-3.7171,-3.72,-3.7276,-3.7345,-3.7347,-3.7377,-3.7426,-3.7419,-3.7205,-3.7175,-3.7147,-3.7117,-3.7432,-3.7433,-3.7642,-3.7644,-3.7646]},{"header":{"parameterUnit":"m.s-1","parameterCategory":1,"la1":30.2991,"la2":30.254,"lo1":-89.0895,"lo2":-89.0444,"dy":0.0017,"dx":0.0017,"nx":28,"ny":28,"refTime":"2024-12-23T09:00:00:Z","depth":0,"parameterNumber":3,"parameterNumberName":"V-component_of_WINDS"},"data":[0,0,0,0,0,0,0,0,0,0,0,0,0,0,0,0,0,0,0,0,0,0,0,0,0,0,0,0,0,0,0,0,0,0,0,0,0,0,0,0,0,0,0,0,0,0,0,0,0,0,0,0,0,0,0,0,0,0,-3.3777,-3.3777,0,-3.3796,-3.3797,-3.3797,-3.3747,-3.3746,-3.3744,-3.3743,-3.3763,-3.3764,-3.3766,0,0,0,0,0,0,0,0,0,0,0,0,0,-3.3694,-3.3696,-3.3777,-3.3777,-3.3777,-3.3796,-3.3797,-3.3797,-3.3748,-3.3746,-3.3744,-3.3742,-3.3762,-3.3764,-3.3767,0,0,0,0,0,0,0,0,0,0,0,0,0,-3.3723,-3.3696,-3.3777,-3.3755,-3.3753,-3.3796,-3.3797,-3.3797,-3.3748,-3.3746,-3.3743,-3.3741,-3.3761,-3.3764,-3.3767,-3.3832,0,0,-3.3776,-3.3777,0,0,0,0,0,0,0,0,-3.3722,-3.3726,-3.3758,-3.3756,-3.3754,-3.3767,-3.3775,-3.3809,-3.3749,-3.375,-3.3743,-3.374,-3.3766,-3.3768,-3.3777,-3.3833,-3.3834,-3.3776,-3.3778,-3.3779,-3.378,0,0,0,0,0,0,0,-3.372,-3.3725,-3.3784,-3.3758,-3.3756,-3.3743,-3.3745,-3.3781,-3.3771,-3.375,-3.3746,-3.3749,-3.3764,-3.3774,-3.3777,-3.3834,-3.3776,-3.3779,-3.3781,-3.3782,-3.3941,-3.3944,0,0,0,0,0,0,-3.3721,-3.3724,-3.3784,-3.3785,-3.3732,-3.3747,-3.3748,-3.3765,-3.377,-3.3769,-3.3751,-3.3747,-3.377,-3.3774,-3.3778,-3.3852,-3.3779,-3.3782,-3.3784,-3.3939,-3.3942,-3.3944,0,0,0,0,0,0,-3.3719,-3.3727,-3.3783,-3.3753,-3.376,-3.3751,-3.377,-3.3767,-3.3777,-3.3771,-3.3769,-3.3763,-3.3769,-3.3774,-3.3818,-3.3852,-3.3783,-3.3786,-3.3936,-3.394,-3.3943,-3.4003,0,0,0,0,0,0,-3.3717,-3.3726,-3.3752,-3.3754,-3.3761,-3.3824,-3.3772,-3.3769,-3.3782,-3.3777,-3.3782,-3.3781,-3.3767,-3.3814,-3.3821,-3.3855,-3.3788,-3.3933,-3.3938,-3.3942,-3.3998,-3.4008,-3.4017,0,0,0,0,0,-3.3714,-3.3768,-3.3753,-3.3761,-3.3793,-3.3826,-3.383,-3.3814,-3.3785,-3.381,-3.3806,-3.3781,-3.3848,-3.3819,-3.3827,-3.3862,-3.393,-3.3936,-3.3942,-3.3994,-3.4006,-3.4017,0,0,0,0,0,0,-3.377,-3.3768,-3.3752,-3.3808,-3.3818,-3.3818,-3.3849,-3.3828,-3.3846,-3.384,-3.3818,-3.382,-3.3868,-3.387,-3.3838,-3.3924,-3.3884,-3.3891,-3.3921,-3.3933,-3.3943,-3.3941,-3.3791,0,0,0,0,0,-3.3789,-3.3817,-3.3813,-3.3864,-3.3869,-3.3858,-3.3872,-3.3858,-3.3867,-3.3871,-3.387,-3.388,-3.3902,-3.3918,-3.3939,-3.3998,-3.3998,-3.4026,-3.4036,-3.4044,-3.405,-3.4079,-3.4091,-3.3963,-3.3962,-3.3962,0,0,-3.3829,-3.3831,-3.385,-3.3875,-3.388,-3.3908,-3.3862,-3.3894,-3.3914,-3.3876,-3.3917,-3.3917,-3.3926,-3.3978,-3.4,-3.398,-3.4085,-3.4051,-3.4057,-3.4059,-3.4086,-3.4098,-3.4109,-3.3966,-3.3966,-3.3965,0,0,-3.3914,-3.392,-3.3961,-3.3967,-3.3976,-3.3968,-3.3978,-3.3981,-3.3979,-3.402,-3.3991,-3.4015,-3.4055,-3.4062,-3.4071,-3.4156,-3.4133,-3.4164,-3.4214,-3.4243,-3.4253,-3.4262,-3.4291,-3.4301,-3.417,-3.4171,-3.4171,0,-3.3962,-3.4004,-3.3985,-3.4018,-3.4029,-3.3995,-3.4036,-3.4043,-3.4058,-3.4066,-3.4043,-3.4092,-3.4096,-3.4147,-3.4168,-3.4177,-3.4186,-3.4163,-3.4253,-3.4262,-3.427,-3.4297,-3.4308,-3.4174,-3.4174,-3.4173,-3.4173,0,-3.4061,-3.409,-3.4122,-3.4137,-3.4152,-3.4189,-3.4174,-3.4191,-3.4176,-3.417,-3.4211,-3.4214,-3.4234,-3.4246,-3.4232,-3.4295,-3.4282,-3.4257,-3.4216,-3.4286,-3.4311,-3.4321,-3.4179,-3.4178,-3.4177,-3.4176,0,0,-3.4184,-3.4186,-3.4198,-3.4203,-3.4209,-3.4231,-3.4266,-3.4285,-3.4299,-3.431,-3.4338,-3.4372,-3.4347,-3.4357,-3.4343,-3.4369,-3.4434,-3.434,-3.434,-3.4356,-3.4502,-3.452,-3.4533,-3.4419,-3.4421,-3.4422,-3.4501,0,-3.4267,-3.4327,-3.4309,-3.4369,-3.4394,-3.4361,-3.439,-3.4397,-3.4392,-3.4412,-3.4406,-3.443,-3.4397,-3.4403,-3.4426,-3.4421,-3.4463,-3.4416,-3.4443,-3.4444,-3.4441,-3.4546,-3.4566,-3.464,-3.4511,-3.4512,-3.4514,0,-3.4373,-3.4387,-3.4448,-3.4448,-3.4458,-3.4485,-3.45,-3.452,-3.4526,-3.452,-3.453,-3.451,-3.4543,-3.4503,-3.4547,-3.4515,-3.4525,-3.4524,-3.4526,-3.4527,-3.4483,-3.4549,-3.4663,-3.4674,-3.4529,-3.4528,-3.4527,0,-3.4454,-3.4489,-3.4529,-3.4535,-3.4536,-3.4555,-3.4556,-3.456,-3.4572,-3.4585,-3.4592,-3.4609,-3.4618,-3.4631,-3.4615,-3.4588,-3.4661,-3.462,-3.4656,-3.4657,-3.4673,-3.4672,-3.4789,-3.4681,-3.4681,-3.4681,-3.4681,0,-3.4548,-3.4587,-3.4565,-3.459,-3.4631,-3.4611,-3.4652,-3.465,-3.4653,-3.4676,-3.4649,-3.4671,-3.465,-3.467,-3.4658,-3.4695,-3.47,-3.4695,-3.4691,-3.4697,-3.4697,-3.4703,-3.4697,-3.4684,-3.4683,-3.4683,-3.4682,0,-3.4646,-3.4633,-3.4675,-3.4672,-3.4672,-3.4702,-3.4699,-3.4721,-3.4714,-3.4743,-3.4749,-3.4737,-3.4758,-3.4744,-3.4767,-3.4759,-3.4807,-3.4797,-3.4805,-3.4802,-3.4838,-3.4834,-3.4962,-3.4977,-3.4861,-3.4862,-3.4863,0,-3.4707,-3.4735,-3.4734,-3.4747,-3.475,-3.4772,-3.4783,-3.4764,-3.4776,-3.4784,-3.4805,-3.4824,-3.4839,-3.4875,-3.4868,-3.4884,-3.4874,-3.4917,-3.4876,-3.488,-3.4872,-3.487,-3.4872,-3.4925,-3.4927,-3.4928,-3.4929,0,-3.4815,-3.4806,-3.4823,-3.4838,-3.4852,-3.4863,-3.4871,-3.4883,-3.4863,-3.4879,-3.49,-3.4911,-3.4933,-3.4952,-3.4966,-3.4966,-3.4944,-3.4942,-3.4951,-3.4956,-3.4959,-3.4956,-3.4826,-3.4939,-3.4938,-3.4937,-3.4936,-3.4936,-3.4894,-3.4917,-3.4919,-3.4939,-3.4943,-3.4951,-3.4971,-3.4965,-3.4982,-3.4998,-3.4985,-3.5011,-3.5014,-3.5029,-3.5033,-3.5052,-3.5034,-3.5047,-3.5051,-3.5054,-3.5058,-3.4957,-3.5054,-3.5054,-3.5054,-3.5053,-3.5053,0,-3.5,-3.4999,-3.5017,-3.5029,-3.5043,-3.502,-3.5028,-3.5042,-3.5064,-3.5069,-3.5083,-3.5107,-3.5125,-3.5119,-3.5134,-3.515,-3.514,-3.5155,-3.5153,-3.5153,-3.5074,-3.5064,-3.5163,-3.5163,-3.5163,-3.5163,-3.5163,-3.5163,-3.5056,-3.5092,-3.5084,-3.5122,-3.512,-3.5144,-3.515,-3.5157,-3.516,-3.5188,-3.5202,-3.5198,-3.5198,-3.5213,-3.5228,-3.5225,-3.5232,-3.525,-3.5244,-3.517,-3.5159,-3.5149,-3.5139,-3.5252,-3.5252,-3.5321,-3.5322,-3.5322]}]]